sat.trackr.live / text

‹ back to catalog

STARLINK-31426

NORAD 59249 · 2024-049U

PAYLOAD ACTIVE UNKNOWN

§ Identity

Operator
Country
US
Launch date
2024-03-16
Launch site
AFETR
Launch vehicle
Mass (kg)
RCS (m²)

Purposes: comms

External: N2YO · Heavens-Above · Gunter

§ Orbital elements

Epoch: 2026-05-25T04:35:30.734880Z

Period
94.27 min
Inclination
43.0047°
Eccentricity
0.0001351
Mean motion
15.27583112 rev/d
Perigee alt
482.1 km
Apogee alt
484.0 km
Semi-major
6,861.2 km
B*
2.5170e-5
RAAN
71.6881°
Arg perigee
259.1556°
Mean anomaly
100.9143°
Rev number
12,409

§ Raw data

STARLINK-314261 59249U 24049U   26145.19132795  .00000431  00000+0  25170-4 0  99992 59249  43.0047  71.6881 0001351 259.1556 100.9143 15.27583112124092

JSON: /api/v1/satellites/59249 · /tle

For live sub-satellite position, see the globe view (requires WebGL).

§ Visibility from observer

Set your observer location to see the next 7 days of passes ≥ 10°. The values pass through the URL so the page stays shareable.

No JS? Fill the form by hand. The geolocation button needs JavaScript.